TimePST,TemperatureF,Dew PointF,Humidity,Sea Level PressureIn,VisibilityMPH,Wind Direction,Wind SpeedMPH,Gust SpeedMPH,PrecipitationIn,Events,Conditions,WindDirDegrees,DateUTC
12:15 AM,50.0,46.4,87,30.11,10.0,Calm,Calm,-,N/A,,Mostly Cloudy,0,2013-11-19 08:15:00
12:35 AM,50.0,46.4,87,30.11,10.0,Calm,Calm,-,N/A,,Mostly Cloudy,0,2013-11-19 08:35:00
12:55 AM,50.0,46.4,87,30.10,10.0,Calm,Calm,-,N/A,Rain,Light Rain,0,2013-11-19 08:55:00
1:15 AM,50.0,48.2,94,30.10,10.0,Calm,Calm,-,N/A,,Mostly Cloudy,0,2013-11-19 09:15:00
1:35 AM,50.0,50.0,100,30.10,10.0,Calm,Calm,-,N/A,Rain,Light Rain,0,2013-11-19 09:35:00
1:55 AM,50.0,50.0,100,30.09,10.0,Calm,Calm,-,N/A,,Overcast,0,2013-11-19 09:55:00
2:15 AM,50.0,50.0,100,30.09,10.0,Calm,Calm,-,N/A,,Overcast,0,2013-11-19 10:15:00
2:35 AM,50.0,50.0,100,30.09,10.0,Calm,Calm,-,N/A,,Overcast,0,2013-11-19 10:35:00
2:55 AM,50.0,50.0,100,30.08,10.0,Calm,Calm,-,N/A,,Overcast,0,2013-11-19 10:55:00
3:15 AM,50.0,50.0,100,30.09,10.0,North,3.5,-,N/A,,Overcast,10,2013-11-19 11:15:00
3:35 AM,50.0,50.0,100,30.09,10.0,Calm,Calm,-,N/A,,Overcast,0,2013-11-19 11:35:00
3:55 AM,50.0,50.0,100,30.09,10.0,Calm,Calm,-,N/A,,Overcast,0,2013-11-19 11:55:00
4:15 AM,50.0,50.0,100,30.09,10.0,South,3.5,-,N/A,,Overcast,180,2013-11-19 12:15:00
4:35 AM,50.0,50.0,100,30.09,10.0,Calm,Calm,-,N/A,,Overcast,0,2013-11-19 12:35:00
4:55 AM,50.0,50.0,100,30.08,10.0,Calm,Calm,-,N/A,,Overcast,0,2013-11-19 12:55:00
5:15 AM,51.8,51.8,100,30.08,10.0,Calm,Calm,-,N/A,,Overcast,0,2013-11-19 13:15:00
5:35 AM,51.8,51.8,100,30.08,10.0,Calm,Calm,-,N/A,,Overcast,0,2013-11-19 13:35:00
5:55 AM,51.8,51.8,100,30.09,10.0,Calm,Calm,-,N/A,,Overcast,0,2013-11-19 13:55:00
6:15 AM,51.8,51.8,100,30.08,10.0,Calm,Calm,-,N/A,,Overcast,0,2013-11-19 14:15:00
6:35 AM,53.6,53.6,100,30.08,8.0,Calm,Calm,-,N/A,Rain,Light Rain,0,2013-11-19 14:35:00
6:55 AM,51.8,51.8,100,30.09,6.0,Calm,Calm,-,N/A,Rain,Light Rain,0,2013-11-19 14:55:00
7:15 AM,53.6,53.6,100,30.08,5.0,SE,4.6,-,N/A,Rain,Light Rain,140,2013-11-19 15:15:00
7:35 AM,53.6,53.6,100,30.09,4.0,Calm,Calm,-,N/A,Rain,Light Rain,0,2013-11-19 15:35:00
7:55 AM,53.6,53.6,100,30.09,9.0,SE,3.5,-,N/A,,Overcast,130,2013-11-19 15:55:00
8:15 AM,53.6,53.6,100,30.09,8.0,SSE,3.5,-,N/A,,Overcast,150,2013-11-19 16:15:00
8:35 AM,53.6,53.6,100,30.09,10.0,SE,3.5,-,N/A,,Overcast,140,2013-11-19 16:35:00
8:55 AM,53.6,53.6,100,30.08,10.0,SSE,5.8,-,N/A,,Overcast,150,2013-11-19 16:55:00
9:15 AM,53.6,53.6,100,30.09,10.0,SSE,9.2,-,N/A,,Overcast,160,2013-11-19 17:15:00
9:35 AM,53.6,53.6,100,30.10,7.0,SSE,5.8,-,N/A,,Overcast,150,2013-11-19 17:35:00
9:55 AM,55.4,55.4,100,30.10,7.0,SSE,4.6,-,N/A,,Overcast,150,2013-11-19 17:55:00
10:15 AM,53.6,53.6,100,30.09,2.5,SSE,6.9,-,N/A,Rain,Light Rain,150,2013-11-19 18:15:00
10:35 AM,53.6,53.6,100,30.08,1.8,SSE,8.1,-,0.01,Rain,Light Rain,160,2013-11-19 18:35:00
10:55 AM,53.6,53.6,100,30.07,2.5,SSE,6.9,-,0.01,Rain,Light Rain,160,2013-11-19 18:55:00
11:15 AM,53.6,53.6,100,30.07,5.0,Calm,Calm,-,N/A,Rain,Light Rain,0,2013-11-19 19:15:00
11:35 AM,55.4,55.4,100,30.06,9.0,Calm,Calm,-,N/A,,Mostly Cloudy,0,2013-11-19 19:35:00
11:55 AM,55.4,55.4,100,30.05,10.0,ESE,5.8,-,N/A,,Overcast,110,2013-11-19 19:55:00
12:15 PM,55.4,55.4,100,30.04,9.0,ESE,4.6,-,N/A,,Overcast,120,2013-11-19 20:15:00
12:35 PM,57.2,57.2,100,30.03,9.0,SE,5.8,-,N/A,,Overcast,130,2013-11-19 20:35:00
12:55 PM,55.4,55.4,100,30.02,5.0,SE,5.8,-,N/A,Rain,Light Rain,140,2013-11-19 20:55:00
1:15 PM,55.4,55.4,100,30.02,8.0,SE,6.9,-,N/A,,Overcast,130,2013-11-19 21:15:00
1:35 PM,57.2,57.2,100,30.01,10.0,SSE,6.9,-,N/A,,Overcast,150,2013-11-19 21:35:00
1:55 PM,57.2,57.2,100,30.01,10.0,SSE,6.9,-,N/A,,Overcast,150,2013-11-19 21:55:00
2:15 PM,57.2,57.2,100,30.00,10.0,SSE,8.1,-,N/A,,Overcast,150,2013-11-19 22:15:00
2:35 PM,57.2,57.2,100,29.99,10.0,SSE,6.9,-,N/A,,Overcast,150,2013-11-19 22:35:00
2:55 PM,57.2,57.2,100,29.99,10.0,SE,6.9,-,N/A,,Overcast,140,2013-11-19 22:55:00
3:15 PM,55.4,55.4,100,29.98,10.0,SSE,9.2,-,N/A,,Overcast,150,2013-11-19 23:15:00
3:35 PM,55.4,55.4,100,29.97,10.0,SE,5.8,-,N/A,,Overcast,140,2013-11-19 23:35:00
3:55 PM,57.2,57.2,100,29.98,10.0,South,6.9,-,N/A,,Overcast,170,2013-11-19 23:55:00
4:15 PM,55.4,55.4,100,29.98,10.0,South,8.1,-,N/A,,Overcast,170,2013-11-20 00:15:00
4:35 PM,55.4,55.4,100,29.97,10.0,SSE,6.9,-,N/A,,Overcast,160,2013-11-20 00:35:00
4:55 PM,55.4,55.4,100,29.97,7.0,SSE,8.1,-,N/A,,Unknown,160,2013-11-20 00:55:00
5:15 PM,55.4,55.4,100,29.97,4.0,South,6.9,-,N/A,,Mist,170,2013-11-20 01:15:00
5:35 PM,55.4,55.4,100,29.96,6.0,SSE,6.9,-,N/A,Rain,Light Rain,160,2013-11-20 01:35:00
5:55 PM,55.4,55.4,100,29.96,8.0,South,6.9,-,N/A,Rain,Light Rain,170,2013-11-20 01:55:00
6:15 PM,55.4,55.4,100,29.96,9.0,SSE,8.1,-,N/A,Rain,Light Rain,160,2013-11-20 02:15:00
6:35 PM,55.4,55.4,100,29.96,10.0,SSE,5.8,-,N/A,Rain,Light Rain,150,2013-11-20 02:35:00
6:55 PM,55.4,55.4,100,29.95,2.0,SSE,8.1,-,0.02,Rain,Light Rain,150,2013-11-20 02:55:00
7:15 PM,55.4,55.4,100,29.95,2.5,SSE,5.8,-,0.01,Rain,Light Rain,160,2013-11-20 03:15:00
7:35 PM,55.4,55.4,100,29.94,4.0,SSE,4.6,-,0.01,Rain,Light Rain,150,2013-11-20 03:35:00
7:55 PM,55.4,55.4,100,29.95,4.0,SSE,5.8,-,0.02,Rain,Light Rain,150,2013-11-20 03:55:00
8:15 PM,55.4,55.4,100,29.95,2.5,SSE,4.6,-,0.01,Rain,Light Rain,150,2013-11-20 04:15:00
8:35 PM,55.4,55.4,100,29.95,2.0,Calm,Calm,-,0.04,Rain,Light Rain,0,2013-11-20 04:35:00
8:55 PM,55.4,55.4,100,29.95,3.0,Calm,Calm,-,0.08,Rain,Light Rain,0,2013-11-20 04:55:00
9:15 PM,55.4,55.4,100,29.96,4.0,South,3.5,-,0.01,Rain,Light Rain,190,2013-11-20 05:15:00
9:35 PM,55.4,55.4,100,29.96,6.0,SSW,5.8,-,0.03,Rain,Light Rain,200,2013-11-20 05:35:00
9:55 PM,55.4,55.4,100,29.95,7.0,South,6.9,-,0.03,Rain,Light Rain,190,2013-11-20 05:55:00
10:15 PM,55.4,55.4,100,29.95,2.0,SSW,6.9,-,N/A,Rain,Light Rain,200,2013-11-20 06:15:00
10:35 PM,55.4,55.4,100,29.95,10.0,South,6.9,-,N/A,,Overcast,190,2013-11-20 06:35:00
10:55 PM,55.4,55.4,100,29.95,10.0,South,6.9,-,N/A,,Overcast,180,2013-11-20 06:55:00
11:15 PM,57.2,57.2,100,29.95,5.0,SE,3.5,-,N/A,Rain,Light Rain,140,2013-11-20 07:15:00
11:35 PM,55.4,55.4,100,29.95,10.0,SE,3.5,-,N/A,,Overcast,140,2013-11-20 07:35:00
11:55 PM,55.4,55.4,100,29.94,10.0,SE,3.5,-,N/A,,Overcast,130,2013-11-20 07:55:00